Weather History for Curacao, Curacao

Change the Weather History Date:

Sunday, April 21, 2013

  Actual Average Record
Temperature  
Mean Temperature 82 °F -  
Max Temperature 88 °F 87 °F 91 °F (1998)
Min Temperature 77 °F 77 °F 77 °F (2002)
Cooling Degree Days 18    
Growing Degree Days 32 (Base 50)    
Moisture  
Dew Point 75 °F    
Average Humidity 76    
Maximum Humidity 89    
Minimum Humidity 56    
Precipitation  
Precipitation 0.00 in 0.03 in - ()
Sea Level Pressure  
Sea Level Pressure 29.93 in    
Wind  
Wind Speed 8 mph ()    
Max Wind Speed 12 mph    
Max Gust Speed -    
Visibility 8.3 miles    
Events      
Averages and records for this station are not official NWS values.
T = Trace of Precipitation, MM = Missing Value Source: Averaged Metar Reports

Daily Weather History Graph

Daily Weather History Graph

Search for Another Location

Airport:

Trip Planner

Search our weather history database for the weather conditions in past years. The results will help you decide how hot, cold, wet, or windy it might be!

Date:

Astronomy

Apr. 21, 2013 Rise Set
Actual Time 6:20 AM AST 6:48 PM AST
Civil Twilight 5:58 AM AST 7:10 PM AST
Nautical Twilight 5:33 AM AST 7:35 PM AST
Astronomical Twilight 5:07 AM AST 8:01 PM AST
Moon 3:11 PM AST (4/21) 2:54 AM AST (4/21)
Length of Visible Light 13h 11m
Length of Day
12h 28m
Waxing Gibbous, 79% of the Moon is Illuminated
Apr 21
Waxing Gibbous
Apr 25
Full
May 2
Last Quarter
May 9
New
May 18
First Quarter

Hourly Weather History & Observations

Time (AST) Temp. Heat Index Dew Point Humidity Pressure Visibility Wind Dir Wind Speed Gust Speed Precip Events Conditions
12:00 AM 80.6 °F 86.2 °F 75.2 °F 84% 29.95 in 6.2 mi East 9.2 mph - N/A   Partly Cloudy
1:00 AM 80.6 °F 86.2 °F 75.2 °F 84% 29.95 in 6.2 mi East 10.4 mph - N/A   Partly Cloudy
2:00 AM 79 °F - 74 °F 81% 29.93 in 12 mi ESE 5.8 mph - -   Haze
2:00 AM 78.8 °F - 73.4 °F 83% 29.92 in 6.2 mi ESE 5.8 mph - N/A   Partly Cloudy
3:00 AM 80.6 °F 86.2 °F 75.2 °F 84% 29.92 in 6.2 mi East 9.2 mph - N/A   Partly Cloudy
4:00 AM 78.8 °F - 75.2 °F 89% 29.92 in 6.2 mi East 8.1 mph - N/A   Partly Cloudy
5:00 AM 78.8 °F - 73.4 °F 83% 29.92 in 6.2 mi ESE 8.1 mph - N/A   Partly Cloudy
6:00 AM 78.8 °F - 73.4 °F 83% 29.92 in 6.2 mi ESE 5.8 mph - N/A   Partly Cloudy
7:00 AM 78.8 °F - 73.4 °F 83% 29.92 in 6.2 mi SE 5.8 mph - N/A   Partly Cloudy
8:00 AM 82 °F - 75 °F 74% 29.96 in 16 mi East 10.4 mph - -   Scattered Clouds
8:00 AM 82.4 °F 89.5 °F 75.2 °F 79% 29.95 in 6.2 mi East 10.4 mph - N/A   Partly Cloudy
9:00 AM 84.2 °F 92.3 °F 75.2 °F 74% 29.98 in 6.2 mi East 9.2 mph - N/A   Scattered Clouds
10:00 AM 86.0 °F 95.1 °F 75.2 °F 70% 29.98 in 6.2 mi East 9.2 mph - N/A   Scattered Clouds
11:00 AM 86 °F - 75 °F 63% 29.99 in 16 mi East 9.2 mph - -   Partly Cloudy
11:00 AM 87.8 °F 97.6 °F 75.2 °F 66% 29.98 in 6.2 mi East 9.2 mph - N/A   Scattered Clouds
12:00 PM 86.0 °F 95.1 °F 75.2 °F 70% 29.98 in 6.2 mi East 11.5 mph - N/A   Scattered Clouds
1:00 PM 87.8 °F 95.6 °F 73.4 °F 62% 29.95 in 6.2 mi East 11.5 mph - N/A   Scattered Clouds
2:00 PM 88 °F - 74 °F 56% 29.92 in 16 mi East 10.4 mph - -   Scattered Clouds
2:00 PM 87.8 °F 97.6 °F 75.2 °F 66% 29.92 in 6.2 mi East 10.4 mph - N/A   Partly Cloudy
3:00 PM 87.8 °F 97.6 °F 75.2 °F 66% 29.89 in 6.2 mi ENE 9.2 mph - N/A   Partly Cloudy
4:00 PM 86.0 °F 95.1 °F 75.2 °F 70% 29.89 in 6.2 mi ENE 9.2 mph - N/A   Scattered Clouds
5:00 PM 85 °F - 74 °F 64% 29.87 in 16 mi ENE 10.4 mph - -   Scattered Clouds
5:00 PM 84.2 °F 92.3 °F 75.2 °F 74% 29.86 in 6.2 mi ENE 10.4 mph - N/A   Partly Cloudy
6:00 PM 84.2 °F 92.3 °F 75.2 °F 74% 29.86 in 6.2 mi ENE 10.4 mph - N/A   Partly Cloudy
7:00 PM 80.6 °F 86.2 °F 75.2 °F 84% 29.89 in 6.2 mi ENE 11.5 mph - N/A   Partly Cloudy
8:00 PM 81 °F - 74 °F 75% 29.93 in 16 mi East 11.5 mph - -   Partly Cloudy
8:00 PM 80.6 °F 86.2 °F 75.2 °F 84% 29.92 in 6.2 mi East 11.5 mph - N/A   Scattered Clouds
9:00 PM 80.6 °F 85.4 °F 73.4 °F 79% 29.95 in 6.2 mi East 11.5 mph - N/A   Scattered Clouds
10:00 PM 80.6 °F 86.2 °F 75.2 °F 84% 29.95 in 6.2 mi East 11.5 mph - N/A   Scattered Clouds
11:00 PM 80 °F - 75 °F 79% 29.97 in 16 mi East 10.4 mph - -   Partly Cloudy
11:00 PM 80.6 °F 86.2 °F 75.2 °F 84% 29.95 in 6.2 mi East 10.4 mph - N/A   Scattered Clouds